Regional Weather Roundup
Issued by NWS Midland/Odessa, TX

Skip options and go directly to product.
Home | Oldest Version | Next Version | Current Version | All | Text Only | Save Text | Print | Product List | Glossary On

Skip product version selection by date and time.   
286
ASUS44 KMAF 211502
RWRMAF
MIDLAND AREA WEATHER ROUNDUP
NATIONAL WEATHER SERVICE MIDLAND TX
1000 AM CDT MON JUL 21 2014

...IN SOUTHWEST TEXAS AND SOUTHEAST NEW MEXICO...

CITY           SKY/WX    TMP DP  RH WIND       PRES   REMARKS
ALPINE         MOSUNNY   80  62  54 CALM      30.24S
ANDREWS        NOT AVBL
ARTESIA        SUNNY     81  57  44 W6        30.10R
BIG SPRING       N/A     84  70  61 S15       30.11S
CARLSBAD       SUNNY     84  62  47 SE8       30.07R
DRYDEN           N/A     84  74  71 E9        30.06R
FORT STOCKTON  SUNNY     86  62  44 SE6       30.09R
GUAD PASS      SUNNY     75  54  47 SW16      30.26R
HOBBS          SUNNY     81  66  61 SE13      30.13R
MARFA          MOSUNNY   77  63  61 NW7       30.24S
MIDLAND AIRPK  MOSUNNY   84  71  63 S14       30.09S
MIDLAND INTL   SUNNY     83  71  67 S15       30.09R
ODESSA         SUNNY     83  70  64 S15       30.10R
PECOS          SUNNY     87  56  34 W6        30.04R
PRESIDIO       FAIR      85  62  45 CALM      30.09R
SEMINOLE       SUNNY     82  67  60 SE10      30.12R
SNYDER         SUNNY     82  72  71 S13       30.10R
WINK           SUNNY     86  68  54 SE10      30.05R
$$
...OTHER STATIONS IN TEXAS...

CITY           SKY/WX    TMP DP  RH WIND       PRES   REMARKS
ABILENE        SUNNY     84  74  71 S14       30.07R
AMARILLO       SUNNY     82  68  62 S21G26    30.11R
AUSTIN         PTSUNNY   83  74  74 S9        30.04R
BROWNSVILLE    SUNNY     88  75  65 S15G21    29.99S
CORPUS CHRISTI MOSUNNY   87  76  69 S16       29.99S
DALLAS FTW     CLOUDY    80  74  81 SE9       30.06R HAZE
DEL RIO        PTSUNNY   83  72  69 E13       30.00R
EL PASO        PTSUNNY   84  54  35 CALM      30.14R
HOUSTON INT    PTSUNNY   86  76  71 CALM      30.05R
LUBBOCK        MOSUNNY   85  69  58 S16       30.11R
SAN ANGELO     SUNNY     85  73  67 S12       30.06R
SAN ANTONIO    PTSUNNY   82  73  74 SE9       30.04S
WACO           SUNNY     84  73  69 SE8       30.05S
WICHITA FALLS  NOT AVBL
$$
...OTHER LOCATIONS IN NEW MEXICO...

CITY           SKY/WX    TMP DP  RH WIND       PRES   REMARKS
ALAMAGORDO     MOSUNNY   79  55  44 S6        30.18R
ALBUQUERQUE    PTSUNNY   79  50  36 SW3       30.25R
CANNON AFB     SUNNY     79  65  62 S8        30.14S
CLOVIS         NOT AVBL
HOLLOMAN AFB   NOT AVBL
ROSWELL        SUNNY     81  63  54 SE7       30.10R
RUIDOSO        MOSUNNY   73  48  40 MISG      30.37R
SANTA FE       MOSUNNY   75  51  43 N3        30.31R
TRUTH OR CONSE PTSUNNY   78  54  43 VRB3      30.20S
TUCUMCARI      SUNNY     84  57  39 SW12      30.09R
$$

USA.gov is the U.S. government's official web portal to all federal, state and local government web resources and services.